This demonstration page uses our WeatherBlox Daily Observations layout. Learn more.

Left ArrowRight Arrow

40.92501, -98.34201

Hourly Observations for July 31, 2022

Temp ( °F °C ) Dew Point ( °F °C ) Humidity (%) Winds ( mph kmh ) Pressure ( in mb ) Visibility ( mi km ) Precip ( " mm )
12:53 am 00:53 Clear 66 18.9 59 15 78 78 S 8 13 30.05 1018 10 16 0.00 0.00
1:53 am 01:53 Clear 66 18.9 58 14.4 75 75 S 9 15 30.03 1017 10 16 0.00 0.00
2:53 am 02:53 Clear 64 17.8 59 15 84 84 S 6 9 30.01 1016 10 16 0.00 0.00
3:53 am 03:53 Clear 64 17.8 60 15.6 87 87 S 8 13 30.01 1016 10 16 0.00 0.00
4:53 am 04:53 Clear 64 17.8 61 16.1 90 90 S 7 11 29.99 1016 10 16 0.00 0.00
5:53 am 05:53 Clear 66 18.9 62 16.7 87 87 S 7 11 29.99 1016 10 16 0.00 0.00
6:53 am 06:53 Sunny 66 18.9 62 16.7 87 87 SW 7 11 29.99 1016 10 16 0.00 0.00
7:53 am 07:53 Sunny 69 20.6 64 17.8 84 84 SW 7 11 29.98 1015 10 16 0.00 0.00
8:53 am 08:53 Sunny 73 22.8 66 18.9 79 79 SSW 12 19 29.98 1015 10 16 0.00 0.00
9:53 am 09:53 Sunny 78 25.6 68 20 71 71 SSW 13 20 29.98 1015 10 16 0.00 0.00
10:53 am 10:53 Sunny 82 27.8 69 20.6 65 65 SW 14 22 29.97 1015 10 16 0.00 0.00
11:53 am 11:53 Partly Cloudy 85 29.4 70 21.1 61 61 SW 15 24 29.97 1015 10 16 0.00 0.00
12:29 pm 12:29 Mostly Cloudy 85 29.4 71 21.7 63 63 SW 14 22 29.89 1012 10 16 0.00 0.00
12:42 pm 12:42 Partly Cloudy 84 28.9 70 21.1 63 63 WSW 14 22 29.88 1012 10 16 0.00 0.00
12:53 pm 12:53 Partly Cloudy 85 29.4 71 21.7 63 63 WSW 13 20 29.96 1015 10 16 0.00 0.00
1:53 pm 13:53 Sunny 87 30.6 71 21.7 59 59 WSW 12 19 29.95 1014 10 16 0.00 0.00
2:53 pm 14:53 Sunny 89 31.7 71 21.7 55 55 WSW 10 17 29.95 1014 10 16 0.00 0.00
3:53 pm 15:53 Sunny 90 32.2 71 21.7 54 54 SW 10 17 29.94 1014 10 16 0.00 0.00
4:53 pm 16:53 Sunny 92 33.3 70 21.1 49 49 WSW 9 15 29.93 1013 10 16 0.00 0.00
5:53 pm 17:53 Sunny 91 32.8 70 21.1 50 50 WSW 8 13 29.92 1013 10 16 0.00 0.00
6:53 pm 18:53 Sunny 90 32.2 71 21.7 54 54 SW 8 13 29.91 1013 10 16 0.00 0.00
7:53 pm 19:53 Sunny 87 30.6 72 22.2 61 61 SW 8 13 29.91 1013 10 16 0.00 0.00
8:53 pm 20:53 Clear 81 27.2 71 21.7 72 72 SW 7 11 29.93 1013 10 16 0.00 0.00
9:53 pm 21:53 Clear 79 26.1 71 21.7 77 77 S 7 11 29.94 1014 10 16 0.00 0.00
10:53 pm 22:53 Clear 77 25 71 21.7 82 82 SSW 6 9 29.94 1014 10 16 0.00 0.00
11:53 pm 23:53 Clear 75 23.9 70 21.1 84 84 SSW 6 9 29.93 1014 10 16 0.00 0.00

Powered by AerisWeather